Regional Weather Roundup
Issued by NWS Grand Forks, ND

Home | Current Version | Previous Version | Graphics & Text | Print | Product List | Glossary On
Versions: 1 2 3 4 5 6 7 8 9 10 11 12 13 14 15 16 17 18 19 20 21 22 23 24 25 26 27 28 29 30 31 32 33 34 35 36 37 38 39 40 41 42 43 44 45 46 47 48 49 50
000
ASUS43 KFGF 011110
RWRFGF
PRAIRIE TO PINES  WEATHER ROUNDUP
NATIONAL WEATHER SERVICE EASTERN NORTH DAKOTA/GRAND FORKS ND
600 AM CDT TUE SEP 01 2015

 **SATELLITE DATA USED TO AUGMENT SKY COVER AT AUTOMATED STATIONS**
 *****  WEATHER ACROSS EASTERN NORTH DAKOTA  *****

CITY           SKY/WX    TMP DP  RH WIND       PRES   REMARKS
GRAND FORKS    PTCLDY    53  49  86 S5        29.86R
GRAND FRKS AFB PTCLDY    54  49  85 SW6       29.87R
GRAND FRKS NWS   N/A     54 N/A N/A W3          N/A
DEVILS LAKE    CLEAR     55  43  62 SE3       29.85F
FARGO          MOCLDY    58  56  93 S3        29.88S
WAHPETON ARPT  CLOUDY    59  55  88 CALM      29.90S
$$

 ***** WEATHER ACROSS CENTRAL AND WESTERN NORTH DAKOTA  *****

CITY           SKY/WX    TMP DP  RH WIND       PRES   REMARKS
BISMARCK       CLEAR     54  51  90 NE5       29.88R
MINOT          CLEAR     55  47  74 SW7       29.82F
JAMESTOWN      PTCLDY    53  50  89 S3        29.88S
MINOT AFB      NOT AVBL
GARRISON         N/A     50  46  86 CALM      29.86S
WILLISTON      CLEAR     47  43  86 CALM      29.83S
DICKINSON      CLEAR     58  50  75 S10       29.86S
HETTINGER      CLEAR     52  48  86 CALM      29.90F
$$

 *****  OTHER AIRPORT OBSERVATIONS IN OUR AREA  *****

CITY           SKY/WX    TMP DP  RH WIND       PRES   REMARKS
WALHALLA       FAIR      55  52  88 MISG      29.85S
GRAFTON AIRPOR FAIR      52  50  93 CALM      29.86S
VALLEY CITY AR FAIR      54  54 100 CALM      29.89S
CANDO          NOT AVBL
CAVALIER APRT  FAIR      54  48  82 SW5       29.85R
GWINNER          N/A     59  59 100 CALM      29.90F
SHEYENNE NWR     N/A     56  56  99 CALM      29.95S
ROLLA          FAIR      48  45  87 SW6       29.86S
 ***** THE ABOVE OBSERVATIONS ARE NON NWS ARE NOT QUALITY
       CONTROLLED AND MAY MIS-REPORT RAIN FOR SNOW...
$$

  *****  WEATHER ACROSS NORTHERN MINNESOTA  *****

CITY           SKY/WX    TMP DP  RH WIND       PRES   REMARKS
FLAG ISLAND    PTCLDY    61  52  72 SW12      29.83S
WARROAD        PTCLDY    55  52  88 SW7       29.88R
ROSEAU         PTCLDY    52  46  82 S3        29.87R
HALLOCK        PTCLDY    50  46  87 CALM      29.84S
THF RVR FALLS  PTCLDY   N/A N/A N/A SE5       29.88S
BAUDETTE       PTCLDY    52  50  93 S3        29.87R
WASKISH        FOG       50  48  93 CALM      29.90R VSB 1/4
CROOKSTON      PTCLDY    54  54 100 S6        29.88S
STEPHEN NDAWN    N/A     52  52 100 SW3         N/A
GREENBUSH NDAW   N/A     54  52  94 S3          N/A
$$
  *****  WEATHER ACROSS CENTRAL AND WEST MINNESOTA  *****

CITY           SKY/WX    TMP DP  RH WIND       PRES   REMARKS
FOSSTON        MOCLDY    52  50  93 S3        29.91R FOG
BEMIDJI        FOG       53  53 100 CALM      29.91R VSB 1/2
PARK RAPIDS    FOG       56  55  97 CALM      29.91S VSB 1/4
ELBOW LAKE     FAIR      67  65  94 CALM      29.91R
WADENA         FOG       61  59  94 CALM      29.92R VSB 1/4
DETROIT LAKES  FOG       61  59  94 CALM      29.93S VSB 1/2
MOORHEAD       FOG       55  55 100 CALM      29.90R VSB 1
FERGUS FALLS   CLOUDY    64  64 100 E3        29.90S
MORRIS MN      CLOUDY    66  64  94 N3        29.90S FOG
STAPLES        CLOUDY    63  63 100 CALM      29.92S FOG
$$
  *****  WEATHER ELSEWHERE ACROSS MINNESOTA  *****

CITY           SKY/WX    TMP DP  RH WIND       PRES   REMARKS
DULUTH         CLOUDY    69  67  93 W6        29.90R FOG
INTRNTL FALLS  FOG       53  52  96 CALM      29.88R VSB 3/4
ELY            FOG       64  63  94 CALM      29.91R VSB 1/4
CLOQUET        CLOUDY    70  66  88 CALM      29.90S FOG
WHEATON        CLOUDY    61  59  94 CALM      29.92S FOG
BRAINERD       MOCLDY    65  64  97 CALM      29.92R FOG
HIBBING        FOG       60  59  96 CALM      29.91S VSB 3/4
ALEXANDRIA     CLOUDY    68  65  90 CALM      29.93R
SAINT CLOUD    CLOUDY    68  67  96 S5        29.90R FOG
MINNEAPOLIS    MOCLDY    70  66  87 CALM      29.92R
$$

  *****  WEATHER ACROSS SOUTH DAKOTA  *****

CITY           SKY/WX    TMP DP  RH WIND       PRES   REMARKS
SIOUX FALLS    CLOUDY    69  66  90 E6        29.89S
BROOKINGS      CLOUDY    68  64  88 E7        29.91S
WATERTOWN      CLOUDY    67  64  90 NE5       29.90F
HURON          CLOUDY    62  62 100 N6        29.86F
SISSETON         N/A     61  60  97 CALM      29.89S
ABERDEEN       FOG       57  56  96 CALM      29.90R VSB 1/4
MITCHELL       CLOUDY    65  64  97 NW3       29.87S
PIERRE         PTCLDY    58  57  97 E3        29.85F
MOBRIDGE       CLEAR     57  57 100 SE3       29.86S
RAPID CITY     CLEAR     53  52  96 W3        29.89F
$$

  *****  SOME WEATHER IN NEARBY STATES *****

CITY           SKY/WX    TMP DP  RH WIND       PRES   REMARKS
GLASGOW MT     CLEAR     51  43  74 E8        29.79F
GREAT FALLS MT MOCLDY    62  40  44 S14       29.83S
CHEYENNE WY    CLEAR     54  45  71 SW6       30.13S
SCOTTSBLUFF NE CLEAR     56  53  90 CALM      29.99F
OMAHA NE       CLEAR     70  68  93 S9        29.93R
DES MOINES IA  CLEAR     70  66  87 S8        29.96S
DAVENPORT IA   PTCLDY    72  70  93 S6        30.02R FOG
CHICAGO IL     CLEAR     70  68  93 CALM      30.04R
EAU CLAIRE WI  FOG       69  67  93 CALM      29.94S VSB 1
LA CROSSE WI   CLEAR     70  69  97 SE6       29.96R FOG
$$

  *****  SOME NATIONAL WEATHER *****

CITY           SKY/WX    TMP DP  RH WIND       PRES   REMARKS
LA GUARDIA NY  PTCLDY    77  67  71 VRB5      30.02R
RALEIGH NC     PTCLDY    68  66  94 CALM      30.10R FOG
ATLANTA GA     PTCLDY    70  66  87 NW3       30.13R
NEW ORLEANS LA MOCLDY    77  69  76 CALM      30.04R
OKLAHOMA CITY  CLEAR     68  63  84 S6        30.03R
ALBUQUERQUE NM PTCLDY    68  48  48 S5        30.16R
SALT LAKE CITY MOCLDY    74  47  38 SE15      29.95S
LOS ANGELES CA MOCLDY    70  60  70 SE7       29.90S
BOISE ID       CLEAR     61  37  41 SE7       29.91R
SEATTLE WA     CLOUDY    63  53  70 S9        29.90S
$$

*** WEATHER ACROSS MANITOBA...SASKATCHEWAN AND ONTARIO ***
                ***ONTARIO***

CITY           SKY/WX    TMP DP  RH WIND       PRES   REMARKS
GERALDTON      CLOUDY    66  64  94 SW10      29.86R FOG
THUNDER BAY    PTCLDY    61  61 100 E3        29.87R FOG
SIOUX LOOKOUT  NOT AVBL
TORONTO        MOCLDY    64  63  94 W3        30.08R FOG
BIG TROUT LK   CLOUDY    61  59  94 W10G18    29.64R
PICKLE LAKE    PTCLDY    61  59  94 SW12      29.78
DRYDEN         CLEAR     59  57  94 S8        29.85R
KENORA         MOCLDY    57  52  82 SW7       29.85R
$$
                *** MANITOBA***

CITY           SKY/WX    TMP DP  RH WIND       PRES   REMARKS
BRANDON        PTCLDY    48  45  87 SW5       29.81S
DAUPHIN        CLEAR     57  46  67 SW12      29.73S
ISLAND LAKE    PTCLDY    59  55  88 SW3       29.65R
PILOT MOUND      N/A     46  43  87 S6          N/A
THE PAS        PTCLDY    52  50  93 S3        29.65R
THOMPSON       DRZL/FOG  52  52 100 CALM      29.64R VSB 1/8
WINNIPEG       PTCLDY    55  46  71 SW6       29.81R
LYNN LAKE      FOG       43  43 100 MISG      29.63R VSB 3/8
CHURCHILL      CLOUDY    46  45  93 E5        29.69R
$$
                ***SASKATCHEWAN***

CITY           SKY/WX    TMP DP  RH WIND       PRES   REMARKS
ESTEVAN        PTCLDY    50  41  71 S6        29.81F
KINDERSLEY     MOCLDY    50  41  71 S9        29.62F
LLOYDMINSTER   CLOUDY    52  43  71 S7        29.53F
PRINCE ALBERT  CLOUDY    48  46  93 E5        29.63S
REGINA         PTCLDY    46  45  93 S9        29.75F
YORKTON        CLEAR     52  46  82 S8        29.72F
N. BATTLEFORD  CLOUDY    54  45  71 SE7       29.60F
LA RONGE       NOT AVBL
SASKATOON      MOCLDY    50  45  81 S8        29.65F
SWIFT CURRENT  CLEAR     55  39  54 S15       29.72F
$$
NOTE: THESE ARE AUTOMATED STATIONS WITH LIMITED QUALITY CONTROL
      "FAIR" INDICATES FEW OR NO CLOUDS BELOW 12,000 FEET WITH NO
      SIGNIFICANT WEATHER AND/OR OBSTRUCTIONS TO VISIBILITY.
      SKY/WX - SKY CONDITION AND SIGNIFICANT WEATHER.
      TMP - AIR TEMPERATURE.    DP   - DEWPOINT TEMPERATURE.
      RH  - RELATIVE HUMIDITY.  PRES - PRESSURE.
      HX  - HEAT INDEX.         WCI  - WIND CHILL INDEX.
$


USA.gov is the U.S. government's official web portal to all federal, state and local government web resources and services.